Vorticity
nan nan nan nan nan nan nan nan nan nan nan nan nan nan nan nan nan nan nan nan nan nan nan nan nan nan nan nan nan nan nan nan nan nan nan nan nan nan nan nan nan nan nan
nan 11 8 5 5 4 5 5 4 5 4 5 4 5 8 8 5 5 4 4 5 5 5 6 5 4 3 2 2 2 3 4 1 3 4 3 3 3 3 4 7 11 nan
nan 7 7 7 6 6 5 5 5 6 7 5 6 5 5 6 5 4 4 4 5 5 5 5 5 3 2 4 6 9 7 3 2 4 5 5 1 4 5 5 5 6 nan
nan 6 9 9 7 6 5 5 5 6 6 5 6 5 5 5 4 4 4 5 5 4 4 4 4 3 3 7 9 10 7 4 4 4 4 6 5 5 7 7 6 4 nan
nan 7 11 10 7 5 5 6 6 7 5 5 6 6 5 6 4 4 5 4 4 4 5 4 4 3 4 7 9 6 4 4 4 4 6 7 6 5 7 7 6 6 nan
nan 11 11 7 6 6 6 6 7 7 4 5 6 6 6 6 6 4 4 4 5 5 5 4 4 3 4 5 7 6 4 4 4 4 5 6 6 6 6 6 7 7 nan
nan 8 9 8 6 6 6 6 7 7 4 5 6 7 7 5 5 4 3 4 4 5 5 4 4 3 3 4 5 8 6 3 3 5 5 5 6 5 5 5 6 7 nan
nan 7 9 7 5 6 6 6 9 7 4 5 6 6 6 6 5 4 3 4 4 5 5 4 3 3 4 5 4 6 7 5 4 5 5 5 6 5 5 5 5 6 nan
nan 7 9 7 6 6 6 6 9 8 6 5 5 5 5 6 6 5 4 4 4 4 4 4 4 3 3 4 5 5 8 8 5 5 5 5 4 4 4 5 5 5 nan
nan 5 7 7 6 6 8 8 6 7 9 7 5 5 5 5 6 5 5 6 6 4 4 4 4 3 3 3 4 5 7 6 7 6 5 5 5 4 4 4 4 5 nan
nan 5 5 6 7 7 7 8 8 5 7 6 4 5 3 5 7 6 7 7 6 5 5 4 4 4 4 5 5 6 7 6 7 8 7 7 5 3 4 4 4 4 nan
nan 6 6 5 6 6 6 7 7 7 6 5 6 5 5 7 7 7 8 7 5 5 5 5 5 5 5 7 6 7 6 6 8 8 7 7 5 4 5 4 4 4 nan
nan 6 8 6 4 5 6 5 6 7 8 8 7 6 6 6 6 6 7 7 8 7 5 7 7 7 6 6 6 6 6 7 7 8 8 8 6 4 6 5 4 4 nan
nan 3 6 7 6 5 6 7 7 6 6 7 7 6 6 7 7 7 7 7 6 8 7 7 7 6 7 7 6 6 7 7 7 7 9 10 8 5 5 7 6 4 nan
nan 5 4 7 6 8 5 5 7 7 7 7 8 6 5 7 7 7 7 7 7 7 8 7 7 7 7 8 8 7 7 7 7 6 8 11 9 7 6 6 6 7 nan
nan 7 6 4 4 7 7 9 6 6 7 7 7 8 6 6 7 7 7 7 7 8 7 7 7 7 7 8 8 9 8 7 8 7 7 10 12 10 8 6 5 6 nan
nan 10 10 7 5 2 7 5 8 8 7 7 8 9 7 6 8 7 7 8 8 8 8 7 8 8 8 8 9 8 9 9 7 8 8 9 12 13 11 7 7 6 nan
nan 8 2 4 12 8 3 3 5 8 9 8 7 9 10 6 7 7 7 8 9 8 8 8 8 8 8 7 8 8 8 9 9 9 7 7 8 11 13 12 10 9 nan
nan 8 10 7 5 4 5 5 7 7 7 9 9 8 10 9 7 6 7 8 8 8 7 8 8 8 7 8 7 8 8 8 8 7 8 9 9 8 9 14 13 11 nan
nan 8 6 7 7 7 7 8 9 8 7 9 10 9 8 9 7 5 7 9 8 7 7 8 9 7 7 8 8 9 9 7 7 7 9 9 10 9 9 10 13 14 nan
nan 11 8 5 7 6 5 8 8 10 8 8 11 11 9 7 9 7 6 8 8 8 8 7 8 8 8 8 7 9 9 9 9 9 10 10 10 12 12 11 10 9 nan
nan 9 10 9 6 3 2 5 11 12 10 8 10 13 10 9 8 8 8 8 7 8 9 9 8 8 8 9 8 7 7 8 11 10 8 8 11 13 13 12 10 9 nan
nan 11 9 10 8 8 7 5 9 7 9 10 8 9 10 9 9 9 9 9 7 8 9 9 8 8 8 8 10 8 9 9 6 8 8 7 10 10 10 9 9 10 nan
nan 9 10 10 11 11 9 7 7 7 7 8 8 10 11 12 12 10 9 10 9 9 9 9 9 10 10 6 7 10 9 9 6 8 8 7 7 10 9 8 8 8 nan
nan 10 9 7 8 11 9 7 5 6 8 8 9 8 8 8 9 11 14 12 9 7 8 11 11 10 9 10 8 7 8 9 11 8 6 7 7 8 10 11 9 8 nan
nan nan nan nan nan nan nan nan nan nan nan nan nan nan nan nan nan nan nan nan nan nan nan nan nan nan nan nan nan nan nan nan nan nan nan nan nan nan nan nan nan nan nan
CAPE
645 972 1637 1625 1161 1148 965 790 182 245 384 133 236 511 670 717 730 670 492 208 79 7 8 5 5 12 19 66 136 68 21 0 1 198 264 449 81 5 2 0 2 3 0
872 1064 1573 1746 1507 1142 1024 792 203 544 765 555 130 239 676 660 693 655 276 67 14 9 17 10 7 47 77 68 4 1 2 48 188 60 25 29 32 23 129 103 167 71 25
1081 1191 1334 1677 1605 1260 919 642 109 256 615 195 0 27 362 646 656 692 146 4 6 9 16 14 19 7 159 148 0 17 57 59 47 0 0 0 0 4 2 3 7 15 27
1118 1191 1158 1552 1322 1016 825 377 31 495 299 52 0 0 54 304 392 168 14 4 6 8 8 7 27 88 17 18 158 235 107 55 0 0 0 0 0 0 0 4 7 4 13
1163 1172 1199 1498 1234 963 655 230 38 706 305 31 2 5 15 76 14 13 2 7 5 3 2 1 0 0 0 58 139 76 53 23 0 0 0 0 0 0 0 0 1 4 7
918 1110 1224 1252 1138 996 608 250 207 768 280 16 1 16 62 32 13 8 8 5 3 2 1 0 0 0 13 34 36 66 38 12 0 0 0 0 0 0 0 0 0 0 4
890 1097 1053 1260 1136 627 405 311 732 1098 480 57 2 8 12 31 9 6 4 2 4 2 0 0 0 0 12 26 24 21 25 0 0 0 0 0 0 0 0 0 0 0 1
988 1082 949 1005 1165 855 529 625 750 1076 968 333 28 6 10 39 11 10 5 6 24 44 49 41 27 10 0 0 2 2 0 0 0 0 0 0 0 0 0 0 0 0 0
1055 865 788 888 822 767 657 714 882 1249 1327 890 312 28 51 61 55 10 28 42 54 59 41 28 14 0 0 0 0 0 0 0 0 0 0 0 0 0 0 0 0 0 0
685 736 554 529 332 201 211 504 653 812 1105 945 527 145 0 0 5 80 79 100 61 43 29 19 10 0 0 0 0 0 0 0 0 0 0 0 0 0 0 0 0 0 0
1134 910 375 210 83 14 21 377 449 520 587 656 283 58 0 0 0 18 0 42 79 46 24 19 8 0 0 0 0 0 0 0 0 0 0 0 0 0 0 0 0 0 0
804 826 426 151 81 18 51 82 35 140 218 276 98 18 0 0 0 0 0 17 70 67 44 24 8 0 0 0 0 0 0 0 0 0 0 0 0 0 0 0 0 0 0
463 509 263 178 125 60 21 7 0 0 6 54 2 0 0 0 0 0 0 0 0 3 0 2 0 0 0 0 0 0 0 0 0 0 0 0 0 0 0 18 0 0 0
383 385 299 249 169 130 0 0 0 5 0 1 0 0 0 0 0 0 0 0 0 0 0 0 0 0 0 0 0 0 0 0 0 0 0 0 0 0 0 0 79 6 0
158 84 47 232 205 187 47 0 0 0 0 5 0 0 0 0 0 0 0 0 0 0 0 0 0 0 0 0 0 0 0 0 0 0 0 0 0 0 2 0 0 63 264
5 14 12 201 279 293 129 45 1 0 0 0 0 0 0 0 0 0 0 0 0 0 0 0 0 0 0 0 0 0 0 0 0 0 0 0 0 0 21 3 30 39 79
1 3 254 180 346 309 246 156 71 22 0 0 0 0 0 0 0 0 0 0 0 0 0 0 0 0 0 0 0 0 0 0 0 0 0 0 0 0 0 10 73 60 98
271 228 420 502 463 354 323 286 186 155 95 32 0 0 0 0 0 0 0 0 0 0 0 0 0 0 0 0 0 0 0 0 0 0 0 0 1 0 0 4 113 176 253
428 404 441 433 496 493 442 447 280 276 190 105 23 0 0 0 0 0 0 0 0 0 0 0 0 0 0 0 0 1 1 6 1 0 0 0 0 0 0 0 0 34 72
562 500 337 356 471 526 299 129 107 386 334 176 171 59 32 15 1 0 0 0 0 0 0 0 0 0 4 21 28 33 13 5 0 0 0 0 0 0 0 0 0 0 1
374 495 689 559 491 545 510 429 386 427 465 266 142 166 116 76 10 0 0 0 0 8 18 49 70 65 60 21 34 17 3 0 0 0 0 0 0 0 0 0 0 0 8
319 573 597 665 707 660 529 552 443 428 221 146 283 281 217 146 115 59 44 27 48 90 149 137 188 288 270 192 87 39 11 0 0 0 0 0 0 0 0 0 0 0 0
218 364 571 692 745 497 539 188 102 89 135 165 211 315 225 187 212 156 106 150 157 249 331 313 314 330 278 86 35 86 17 0 0 0 0 0 0 0 0 0 0 0 0
0 68 410 483 527 556 423 393 321 280 316 171 137 92 83 45 72 108 94 100 111 131 163 170 82 97 68 78 0 0 0 2 6 0 0 0 0 0 0 0 0 0 0
0 0 25 220 485 564 453 503 419 321 228 65 0 2 0 0 0 0 0 0 0 0 0 0 0 0 0 0 0 0 0 0 0 2 1 0 0 0 0 0 0 0 0
0 0 0 0 53 216 258 330 419 353 229 49 10 4 0 0 0 0 0 0 0 0 0 0 0 0 0 0 0 0 0 0 0 0 0 0 0 0 0 0 0 0 0